This is the latest recevied weather packets stored in our database for station/object KG4GJX. If no packets are shown the sender has not sent any weather packets the latest 10 day(s).
| Time | Temp. | Humidity | Pressure | Rain* | Wind** | Luminosity | Snow |
|---|---|---|---|---|---|---|---|
| 1777759220 | 17.78° C | 42% | 1014.2 hPa | 0 mm | - | - | - |
| 1777758558 | 17.78° C | 43% | 1014.2 hPa | 0 mm | - | - | - |
| 1777757896 | 17.78° C | 45% | 1013.8 hPa | 0 mm | - | - | - |
| 1777757233 | 17.22° C | 42% | 1013.8 hPa | 0 mm | - | - | - |
| 1777756571 | 17.78° C | 40% | 1013.8 hPa | 0 mm | - | - | - |
| 1777755908 | 18.33° C | 40% | 1013.8 hPa | 0 mm | - | - | - |
| 1777755246 | 18.33° C | 42% | 1013.8 hPa | 0 mm | - | - | - |
| 1777754584 | 17.22° C | 42% | 1013.8 hPa | 0 mm | - | - | - |
| 1777753922 | 17.78° C | 42% | 1013.8 hPa | 0 mm | - | - | - |
| 1777753259 | 18.89° C | 40% | 1013.8 hPa | 0 mm | - | - | - |
| 1777752596 | 18.33° C | 43% | 1013.8 hPa | 0 mm | - | - | - |
| 1777751934 | 19.44° C | 42% | 1014.2 hPa | 0 mm | - | - | - |
| 1777751272 | 19.44° C | 41% | 1014.2 hPa | 0 mm | - | - | - |
| 1777750609 | 19.44° C | 36% | 1014.2 hPa | 0 mm | - | - | - |
| 1777749947 | 18.89° C | 41% | 1014.2 hPa | 0 mm | - | - | - |
| 1777749285 | 18.33° C | 43% | 1014.5 hPa | 0 mm | - | - | - |
| 1777748622 | 18.33° C | 41% | 1014.5 hPa | 0 mm | - | - | - |
| 1777747957 | 18.33° C | 41% | 1014.5 hPa | 0 mm | - | - | - |
| 1777747295 | 17.78° C | 41% | 1014.5 hPa | 0 mm | - | - | - |
| 1777746633 | 17.78° C | 37% | 1014.5 hPa | 0 mm | - | - | - |
| 1777745970 | 18.33° C | 47% | 1014.5 hPa | 0 mm | - | - | - |
| 1777745308 | 17.78° C | 41% | 1014.5 hPa | 0 mm | - | - | - |
| 1777744645 | 17.78° C | 41% | 1014.5 hPa | 0 mm | - | - | - |
| 1777743983 | 17.78° C | 41% | 1014.9 hPa | 0 mm | - | - | - |
| 1777743321 | 17.78° C | 40% | 1014.9 hPa | 0 mm | - | - | - |
* Rain latest hour (hover to see other rain measurements)
** Current wind speed in m/s (hover to see current wind gust speed)